Flight Track Log - Related Links

Times and Time Zones

All times are in EDT time to prevent confusion due to time zone crossing. See the UCA4838 flight status page for this flight to view local times or setup timezone preferences in your user account.

Time Position Orientation Groundspeed Altitude Reporting Facility
EDT Latitude Longitude Course Direction KTS MPH feet Rate Location/Type
Tue 06:26:29 AM 43.0994 -77.6944 146° Southeast 123 142 1,200  Level Cleveland Center
Tue 06:27:30 AM 43.0675 -77.6644 146° Southeast 174 200 2,400 1,339 Climbing Cleveland Center
Tue 06:28:30 AM 43.0428 -77.6003 118° Southeast 184 212 3,900 1,290 Climbing Cleveland Center
Tue 06:29:03 AM 43.0336 -77.5694 112° Southeast 178 205 4,400 1,226 Climbing Cleveland Center
Tue 06:30:03 AM 43.0111 -77.5081 117° Southeast 196 226 5,800 1,450 Climbing Cleveland Center
Tue 06:31:03 AM 42.9889 -77.4469 116° Southeast 196 226 7,300 1,350 Climbing Cleveland Center
Tue 06:32:03 AM 42.9661 -77.3828 116° Southeast 191 220 8,500 1,150 Climbing Cleveland Center
Tue 06:33:03 AM 42.9414 -77.3158 117° Southeast 191 220 9,600 1,081 Climbing Cleveland Center
Tue 06:34:55 AM 42.8914 -77.1786 116° Southeast 205 236 11,600 977 Climbing New York Center
Tue 06:35:55 AM 42.8697 -77.1144 115° Southeast 205 236 12,400 694 Climbing New York Center
Tue 06:36:56 AM 42.8406 -77.0408 118° Southeast 205 236 13,000 298 Climbing New York Center
Tue 06:37:56 AM 42.8075 -76.9556 118° Southeast 225 259 13,000  Level New York Center
Tue 06:38:54 AM 42.7683 -76.8672 121° Southeast 252 290 13,000  Level New York Center
Tue 06:39:54 AM 42.7289 -76.7817 122° Southeast 266 306 13,000  Level New York Center
Tue 06:40:54 AM 42.6897 -76.6906 120° Southeast 273 314 13,000  Level New York Center
Tue 06:41:55 AM 42.6483 -76.6022 122° Southeast 273 314 13,000  Level New York Center
Tue 06:43:15 AM 42.5914 -76.4764 122° Southeast 280 322 13,000  Level Boston Center
Tue 06:44:16 AM 42.5506 -76.3864 122° Southeast 280 322 13,000 -50 Level Boston Center
Tue 06:45:15 AM 42.5100 -76.2936 121° Southeast 285 328 12,900 -50 Descending Boston Center
Tue 06:46:15 AM 42.4733 -76.2125 121° Southeast 285 328 12,900 50 Level Boston Center
Tue 06:47:15 AM 42.4344 -76.1256 121° Southeast 285 328 13,000  Climbing Boston Center
Tue 06:48:13 AM 42.3894 -76.0275 122° Southeast 290 334 12,900  Descending Boston Center
Tue 06:49:15 AM 42.3506 -75.9408 121° Southeast 279 321 13,000  Climbing Boston Center
Tue 06:50:13 AM 42.3097 -75.8486 121° Southeast 284 327 12,900 -51 Descending Boston Center
Tue 06:51:13 AM 42.2706 -75.7594 121° Southeast 284 327 12,900  Level Boston Center
Tue 06:52:13 AM 42.2272 -75.6703 123° Southeast 284 327 12,900 49 Level Boston Center
Tue 06:53:15 AM 42.1861 -75.5783 121° Southeast 284 327 13,000 50 Climbing Boston Center
Tue 06:54:14 AM 42.1467 -75.4897 121° Southeast 284 327 13,000  Level Boston Center
Tue 06:55:13 AM 42.1033 -75.3981 122° Southeast 284 327 13,000  Level Boston Center
Tue 06:56:13 AM 42.0597 -75.3092 123° Southeast 284 327 13,000  Level Boston Center
Tue 06:57:13 AM 42.0267 -75.2156 115° Southeast 284 327 13,000  Level Boston Center
Tue 06:58:14 AM 41.9914 -75.1244 117° Southeast 279 321 13,000  Level Boston Center
Tue 06:59:15 AM 41.9519 -75.0225 117° Southeast 274 315 13,000  Level Boston Center
Tue 07:00:16 AM 41.9183 -74.9400 119° Southeast 274 315 13,000 -407 Level Boston Center
Tue 07:01:13 AM 41.8578 -74.8597 135° Southeast 269 310 12,200 -966 Descending Boston Center
Tue 07:02:14 AM 41.8069 -74.7936 136° Southeast 276 318 11,100 -1,289 Descending Boston Center
Tue 07:03:14 AM 41.7461 -74.7133 135° Southeast 281 323 9,600 -1,388 Descending Boston Center
Tue 07:04:15 AM 41.6972 -74.6506 136° Southeast 281 323 8,300 -1,388 Descending Boston Center
Tue 07:05:15 AM 41.6383 -74.5706 135° Southeast 274 315 6,800 -1,150 Descending Boston Center
Tue 07:06:15 AM 41.5739 -74.5631 175° South 246 283 6,000 -255 Descending Boston Center
Tue 07:08:23 AM 41.4167 -74.5667 181° South 249 287 6,000  Level New York TRACON
Tue 07:09:23 AM 41.3667 -74.5167 143° Southeast 255 293 6,000  Level New York TRACON
Tue 07:10:23 AM 41.3000 -74.4667 151° Southeast 256 295 6,000  Level New York TRACON
Tue 07:11:17 AM 41.2500 -74.4167 143° Southeast 257 296 6,000  Level New York TRACON
Tue 07:12:11 AM 41.2000 -74.3667 143° Southeast 258 297 6,000 -105 Level New York TRACON
Tue 07:13:11 AM 41.1333 -74.3167 151° Southeast 256 295 5,800 -600 Descending New York TRACON
Tue 07:14:11 AM 41.0667 -74.2667 151° Southeast 266 306 4,800 -900 Descending New York TRACON
Tue 07:15:11 AM 41.0333 -74.2167 131° Southeast 223 257 4,000 -400 Descending New York TRACON
Tue 07:16:11 AM 41.0000 -74.1500 124° Southeast 213 245 4,000 -421 Level New York TRACON
Tue 07:17:05 AM 40.9667 -74.1000 131° Southeast 196 226 3,200 -526 Descending New York TRACON
Tue 07:18:05 AM 40.9333 -74.0667 143° Southeast 178 205 3,000 -100 Descending New York TRACON
Tue 07:19:05 AM 40.8833 -74.0500 166° South 193 222 3,000 -100 Level New York TRACON
Tue 07:20:05 AM 40.8333 -74.0833 207° Southwest 194 223 2,800 -632 Descending New York TRACON
Tue 07:20:59 AM 40.7833 -74.1000 194° South 188 216 1,800 -947 Descending New York TRACON
Tue 07:21:59 AM 40.7333 -74.1333 207° Southwest 154 177 1,000 -714 Descending New York TRACON
Tue 07:23:05 AM 40.7000 -74.1500 201° Southwest 122 140 300 -636 Descending New York TRACON

Login

Don't have an account? Register now (free) for customized features, flight alerts, and more!